This is the latest recevied weather packets stored in our database for station/object KD2SIG. If no packets are shown the sender has not sent any weather packets the latest 1 day(s).
| Time | Temp. | Humidity | Pressure | Rain* | Wind** | Luminosity | Snow |
|---|---|---|---|---|---|---|---|
| 1778083015 | 6.67° C | 97% | 1010.1 hPa | 0 mm | - | 108 W/m² | - |
| 1778080060 | 6.67° C | 97% | 1009.8 hPa | 0 mm | - | 111 W/m² | - |
| 1778078848 | 6.67° C | 97% | 1009.9 hPa | 0 mm | - | 156 W/m² | - |
| 1778078545 | 6.67° C | 98% | 1009.6 hPa | 0 mm | - | 184 W/m² | - |
| 1778077940 | 6.11° C | 98% | 1009.8 hPa | 0 mm | - | 123 W/m² | - |
| 1778077336 | 6.11° C | 98% | 1009.8 hPa | 1.78 mm | - | 134 W/m² | - |
| 1778076732 | 6.11° C | 98% | 1009.8 hPa | 0 mm | - | 102 W/m² | - |
| 1778075823 | 6.11° C | 98% | 1009.9 hPa | 0 mm | - | 66 W/m² | - |
| 1778074912 | 6.11° C | 98% | 1010.1 hPa | 1.27 mm | - | 52 W/m² | - |
| 1778074306 | 6.11° C | 98% | 1009.8 hPa | 0 mm | - | 48 W/m² | - |
| 1778072488 | 6.11° C | 98% | 1009.9 hPa | 1.27 mm | - | 50 W/m² | - |
| 1778071279 | 6.11° C | 98% | 1009.8 hPa | 0 mm | - | 46 W/m² | - |
| 1778070675 | 6.11° C | 98% | 1009.7 hPa | 1.78 mm | - | 45 W/m² | - |
| 1778069161 | 6.11° C | 98% | 1010.1 hPa | 0 mm | - | 36 W/m² | - |
| 1778068556 | 6.11° C | 98% | 1010 hPa | 1.27 mm | - | 35 W/m² | - |
| 1778068254 | 6.11° C | 98% | 1010 hPa | 1.27 mm | - | 18 W/m² | - |
| 1778067951 | 6.11° C | 98% | 1009.8 hPa | 0 mm | - | 22 W/m² | - |
| 1778067649 | 6.11° C | 98% | 1010.1 hPa | 1.78 mm | - | 21 W/m² | - |
| 1778067044 | 6.11° C | 98% | 1010.3 hPa | 1.27 mm | - | 17 W/m² | - |
| 1778066740 | 6.11° C | 98% | 1010.3 hPa | 1.27 mm | - | 14 W/m² | - |
| 1778066438 | 6.11° C | 97% | 1010.5 hPa | 1.78 mm | - | 12 W/m² | - |
| 1778064923 | 6.11° C | 97% | 1010.3 hPa | 0 mm | - | 9 W/m² | - |
| 1778064319 | 6.11° C | 97% | 1010.2 hPa | 0 mm | - | 10 W/m² | - |
| 1778063713 | 6.11° C | 97% | 1010.3 hPa | 1.78 mm | - | 4 W/m² | - |
| 1778063410 | 6.11° C | 97% | 1010.3 hPa | 0 mm | - | 5 W/m² | - |
* Rain latest hour (hover to see other rain measurements)
** Current wind speed in m/s (hover to see current wind gust speed)